Osage River (Missouri), Tuscumbia (06926080)

StateMissouriLatestUnknown (27300 cfs)
RiverOsage RiverRatingObservedEstimated
Updated2026-05-10 9:00 (21 minutes ago)Flood - The river is flooding. Obstacles can be treacherous or deadly. The river should be avoided at this stage for casual trips and definitely for the inexperienced. Trips should be attempted only with protective gear and equipment.Flood(none)(none)
Discharge27300 cfs (median: 28000 cfs)High - The river is high and potentially dangerous, especially for the young and / or inexperienced. Normal stream obstacles are sometimes difficult to navigate. Extended distances can be attempted, but canoe travel may not be advisable.High(none)(none)
Height13.17 feetGood - Conditions are ideal for a canoe or kayak. Boats typically will drag on fewer than one-quarter of riffles, if at all, and portages are unnecessary or rare. Normal float lengths can be attempted without a problem.Good(none)(none)
TrendFalling (falling over 24 hours)Low - River is low but can still be floated. Some riffles are okay but most come with significant dragging and might need a portage. Float lengths should be reduced to accommodate low flow, dragging, and portages.Low(none)(none)
USGSExternal icon USGS Site (External icon Duck Duck Go Maps)Poor - River is too low to float comfortably. Most or all riffles will drag or must be portaged and some obstacles (such as slick shelf rock) cause undue problems. Avoid the river at this stage for casual paddling trips.Poor(none)(none)

Trending Data

Plot Image

Trips for Osage River (Missouri), Tuscumbia (06926080)

DateStartEndDistanceConditionDischargeHeightFishingDetails

A total of 0 rows are displayed.

Condition Descriptions

Fishing Conditions

Fish Species

Notes

Classic Trip List

The classic River Trips application is still available for use. It is updated with the new system using a data retrofit. It is no longer maintained. The original River Trips application is no longer updated (as of 1 Dec 2016) but can be checked for errors or for the condition of the data before it was converted to the new system.

Gauge Data Table

ObservationHeightDischargeMaximum
Discharge
Minimum
Discharge
Mean
Discharge
P05P10P20P25P50
(Median)
P75P80P90P95
2026-05-10 09:00 13.17 27300 49900 (2017) 1210 (2023) 25100 1720 6840 8420 28000 40600 42700 49300
2026-05-10 08:00 13.41 28000 49900 (2017) 1210 (2023) 25100 1720 6840 8420 28000 40600 42700 49300
2026-05-10 07:00 13.67 28800 49900 (2017) 1210 (2023) 25100 1720 6840 8420 28000 40600 42700 49300
2026-05-10 06:00 13.99 29800 49900 (2017) 1210 (2023) 25100 1720 6840 8420 28000 40600 42700 49300
2026-05-10 05:00 14.34 30800 49900 (2017) 1210 (2023) 25100 1720 6840 8420 28000 40600 42700 49300
2026-05-10 04:00 14.55 31400 49900 (2017) 1210 (2023) 25100 1720 6840 8420 28000 40600 42700 49300
2026-05-10 03:00 14.58 31500 49900 (2017) 1210 (2023) 25100 1720 6840 8420 28000 40600 42700 49300
2026-05-10 02:00 14.41 31000 49900 (2017) 1210 (2023) 25100 1720 6840 8420 28000 40600 42700 49300
2026-05-10 01:00 14.53 31400 49900 (2017) 1210 (2023) 25100 1720 6840 8420 28000 40600 42700 49300
2026-05-10 00:00 14.28 30600 49900 (2017) 1210 (2023) 25100 1720 6840 8420 28000 40600 42700 49300
2026-05-09 23:00 13.90 29500 49900 (2017) 1210 (2023) 25100 1720 6840 8420 28000 40600 42700 49300
2026-05-09 22:00 13.46 28200 48800 (2017) 1920 (2023) 26000 1930 2760 4810 30200 37400 44700 48700
2026-05-09 21:00 12.92 26600 48800 (2017) 1920 (2023) 26000 1930 2760 4810 30200 37400 44700 48700
2026-05-09 20:00 12.42 25200 48800 (2017) 1920 (2023) 26000 1930 2760 4810 30200 37400 44700 48700
2026-05-09 19:00 12.26 24700 48800 (2017) 1920 (2023) 26000 1930 2760 4810 30200 37400 44700 48700
2026-05-09 18:00 12.47 25300 48800 (2017) 1920 (2023) 26000 1930 2760 4810 30200 37400 44700 48700
2026-05-09 17:00 12.50 25400 48800 (2017) 1920 (2023) 26000 1930 2760 4810 30200 37400 44700 48700
2026-05-09 16:00 12.49 25400 48800 (2017) 1920 (2023) 26000 1930 2760 4810 30200 37400 44700 48700
2026-05-09 15:00 12.52 25500 48800 (2017) 1920 (2023) 26000 1930 2760 4810 30200 37400 44700 48700
2026-05-09 14:00 12.56 25600 48800 (2017) 1920 (2023) 26000 1930 2760 4810 30200 37400 44700 48700
2026-05-09 13:00 12.66 25900 48800 (2017) 1920 (2023) 26000 1930 2760 4810 30200 37400 44700 48700
2026-05-09 12:00 12.83 26300 48800 (2017) 1920 (2023) 26000 1930 2760 4810 30200 37400 44700 48700
2026-05-09 11:00 13.24 27500 48800 (2017) 1920 (2023) 26000 1930 2760 4810 30200 37400 44700 48700
2026-05-09 10:00 13.45 28200 48800 (2017) 1920 (2023) 26000 1930 2760 4810 30200 37400 44700 48700
2026-05-09 09:00 13.84 29300 48800 (2017) 1920 (2023) 26000 1930 2760 4810 30200 37400 44700 48700
2026-05-09 08:00 14.30 30700 48800 (2017) 1920 (2023) 26000 1930 2760 4810 30200 37400 44700 48700
2026-05-09 07:00 14.41 31000 48800 (2017) 1920 (2023) 26000 1930 2760 4810 30200 37400 44700 48700
2026-05-09 06:00 14.31 30700 48800 (2017) 1920 (2023) 26000 1930 2760 4810 30200 37400 44700 48700
2026-05-09 05:00 14.65 31800 48800 (2017) 1920 (2023) 26000 1930 2760 4810 30200 37400 44700 48700
2026-05-09 04:00 15.02 32900 48800 (2017) 1920 (2023) 26000 1930 2760 4810 30200 37400 44700 48700
2026-05-09 03:00 15.62 34800 48800 (2017) 1920 (2023) 26000 1930 2760 4810 30200 37400 44700 48700
2026-05-09 02:00 16.12 36300 48800 (2017) 1920 (2023) 26000 1930 2760 4810 30200 37400 44700 48700
2026-05-09 01:00 16.36 37100 48800 (2017) 1920 (2023) 26000 1930 2760 4810 30200 37400 44700 48700
2026-05-09 00:00 16.37 37100 48800 (2017) 1920 (2023) 26000 1930 2760 4810 30200 37400 44700 48700
2026-05-08 23:00 16.37 37100 48800 (2017) 1920 (2023) 26000 1930 2760 4810 30200 37400 44700 48700
2026-05-08 22:00 16.35 37100 51700 (2024) 1810 (2018) 25500 2050 4560 5400 30400 38000 38400 50400
2026-05-08 21:00 16.35 37100 51700 (2024) 1810 (2018) 25500 2050 4560 5400 30400 38000 38400 50400
2026-05-08 20:00 16.33 37000 51700 (2024) 1810 (2018) 25500 2050 4560 5400 30400 38000 38400 50400
2026-05-08 19:00 16.25 36800 51700 (2024) 1810 (2018) 25500 2050 4560 5400 30400 38000 38400 50400
2026-05-08 18:00 16.21 36600 51700 (2024) 1810 (2018) 25500 2050 4560 5400 30400 38000 38400 50400
2026-05-08 17:00 16.20 36600 51700 (2024) 1810 (2018) 25500 2050 4560 5400 30400 38000 38400 50400
2026-05-08 16:00 16.20 36600 51700 (2024) 1810 (2018) 25500 2050 4560 5400 30400 38000 38400 50400
2026-05-08 15:00 16.17 36500 51700 (2024) 1810 (2018) 25500 2050 4560 5400 30400 38000 38400 50400
2026-05-08 14:00 16.17 36500 51700 (2024) 1810 (2018) 25500 2050 4560 5400 30400 38000 38400 50400
2026-05-08 13:00 16.14 36400 51700 (2024) 1810 (2018) 25500 2050 4560 5400 30400 38000 38400 50400
2026-05-08 12:00 16.12 36300 51700 (2024) 1810 (2018) 25500 2050 4560 5400 30400 38000 38400 50400
2026-05-08 11:00 16.09 36200 51700 (2024) 1810 (2018) 25500 2050 4560 5400 30400 38000 38400 50400
2026-05-08 10:00 16.06 36100 51700 (2024) 1810 (2018) 25500 2050 4560 5400 30400 38000 38400 50400
2026-05-08 09:00 16.04 36100 51700 (2024) 1810 (2018) 25500 2050 4560 5400 30400 38000 38400 50400
2026-05-08 08:00 16.02 36000 51700 (2024) 1810 (2018) 25500 2050 4560 5400 30400 38000 38400 50400
2026-05-08 07:00 15.99 35900 51700 (2024) 1810 (2018) 25500 2050 4560 5400 30400 38000 38400 50400
2026-05-08 06:00 15.96 35800 51700 (2024) 1810 (2018) 25500 2050 4560 5400 30400 38000 38400 50400
2026-05-08 05:00 15.91 35700 51700 (2024) 1810 (2018) 25500 2050 4560 5400 30400 38000 38400 50400
2026-05-08 04:00 15.87 35500 51700 (2024) 1810 (2018) 25500 2050 4560 5400 30400 38000 38400 50400
2026-05-08 03:00 15.82 35400 51700 (2024) 1810 (2018) 25500 2050 4560 5400 30400 38000 38400 50400
2026-05-08 02:00 15.78 35300 51700 (2024) 1810 (2018) 25500 2050 4560 5400 30400 38000 38400 50400
2026-05-08 01:00 15.76 35200 51700 (2024) 1810 (2018) 25500 2050 4560 5400 30400 38000 38400 50400
2026-05-08 00:00 15.71 35000 51700 (2024) 1810 (2018) 25500 2050 4560 5400 30400 38000 38400 50400
2026-05-07 23:00 15.67 34900 51700 (2024) 1810 (2018) 25500 2050 4560 5400 30400 38000 38400 50400
2026-05-07 22:00 15.84 35400 47400 (2024) 1120 (2023) 26100 1190 3460 8020 30900 37200 37900 46500
2026-05-07 21:00 15.98 35900 47400 (2024) 1120 (2023) 26100 1190 3460 8020 30900 37200 37900 46500
2026-05-07 20:00 15.94 35800 47400 (2024) 1120 (2023) 26100 1190 3460 8020 30900 37200 37900 46500
2026-05-07 19:00 15.90 35600 47400 (2024) 1120 (2023) 26100 1190 3460 8020 30900 37200 37900 46500
2026-05-07 18:00 15.84 35400 47400 (2024) 1120 (2023) 26100 1190 3460 8020 30900 37200 37900 46500
2026-05-07 17:00 15.79 35300 47400 (2024) 1120 (2023) 26100 1190 3460 8020 30900 37200 37900 46500
2026-05-07 16:00 15.71 35000 47400 (2024) 1120 (2023) 26100 1190 3460 8020 30900 37200 37900 46500
2026-05-07 15:00 15.65 34900 47400 (2024) 1120 (2023) 26100 1190 3460 8020 30900 37200 37900 46500
2026-05-07 14:00 15.56 34600 47400 (2024) 1120 (2023) 26100 1190 3460 8020 30900 37200 37900 46500
2026-05-07 13:00 15.55 34500 47400 (2024) 1120 (2023) 26100 1190 3460 8020 30900 37200 37900 46500
2026-05-07 12:00 15.70 35000 47400 (2024) 1120 (2023) 26100 1190 3460 8020 30900 37200 37900 46500
2026-05-07 11:00 16.04 36100 47400 (2024) 1120 (2023) 26100 1190 3460 8020 30900 37200 37900 46500
2026-05-07 10:00 16.07 36200 47400 (2024) 1120 (2023) 26100 1190 3460 8020 30900 37200 37900 46500
2026-05-07 09:00 16.08 36200 47400 (2024) 1120 (2023) 26100 1190 3460 8020 30900 37200 37900 46500
2026-05-07 08:00 16.09 36200 47400 (2024) 1120 (2023) 26100 1190 3460 8020 30900 37200 37900 46500
2026-05-07 07:00 16.08 36200 47400 (2024) 1120 (2023) 26100 1190 3460 8020 30900 37200 37900 46500
2026-05-07 06:00 16.19 36600 47400 (2024) 1120 (2023) 26100 1190 3460 8020 30900 37200 37900 46500
2026-05-07 05:00 16.18 36500 47400 (2024) 1120 (2023) 26100 1190 3460 8020 30900 37200 37900 46500
2026-05-07 04:00 16.18 36500 47400 (2024) 1120 (2023) 26100 1190 3460 8020 30900 37200 37900 46500
2026-05-07 03:00 16.16 36500 47400 (2024) 1120 (2023) 26100 1190 3460 8020 30900 37200 37900 46500
2026-05-07 02:00 16.16 36500 47400 (2024) 1120 (2023) 26100 1190 3460 8020 30900 37200 37900 46500
2026-05-07 01:00 16.17 36500 47400 (2024) 1120 (2023) 26100 1190 3460 8020 30900 37200 37900 46500
2026-05-07 00:00 16.16 36500 47400 (2024) 1120 (2023) 26100 1190 3460 8020 30900 37200 37900 46500
2026-05-06 23:00 16.13 36400 47400 (2024) 1120 (2023) 26100 1190 3460 8020 30900 37200 37900 46500
2026-05-06 22:00 16.14 36400 48100 (2022) 1170 (2023) 25300 1230 4330 11500 26500 38600 45000 48000
2026-05-06 21:00 16.12 36300 48100 (2022) 1170 (2023) 25300 1230 4330 11500 26500 38600 45000 48000
2026-05-06 20:00 16.10 36300 48100 (2022) 1170 (2023) 25300 1230 4330 11500 26500 38600 45000 48000
2026-05-06 19:00 16.08 36200 48100 (2022) 1170 (2023) 25300 1230 4330 11500 26500 38600 45000 48000
2026-05-06 18:00 16.07 36200 48100 (2022) 1170 (2023) 25300 1230 4330 11500 26500 38600 45000 48000
2026-05-06 17:00 16.05 36100 48100 (2022) 1170 (2023) 25300 1230 4330 11500 26500 38600 45000 48000
2026-05-06 16:00 16.03 36100 48100 (2022) 1170 (2023) 25300 1230 4330 11500 26500 38600 45000 48000
2026-05-06 15:00 16.02 36000 48100 (2022) 1170 (2023) 25300 1230 4330 11500 26500 38600 45000 48000
2026-05-06 14:00 16.01 36000 48100 (2022) 1170 (2023) 25300 1230 4330 11500 26500 38600 45000 48000
2026-05-06 13:00 15.98 35900 48100 (2022) 1170 (2023) 25300 1230 4330 11500 26500 38600 45000 48000
2026-05-06 12:00 15.96 35800 48100 (2022) 1170 (2023) 25300 1230 4330 11500 26500 38600 45000 48000
2026-05-06 11:00 15.93 35700 48100 (2022) 1170 (2023) 25300 1230 4330 11500 26500 38600 45000 48000
2026-05-06 10:00 15.91 35700 48100 (2022) 1170 (2023) 25300 1230 4330 11500 26500 38600 45000 48000
2026-05-06 09:00 15.88 35600 48100 (2022) 1170 (2023) 25300 1230 4330 11500 26500 38600 45000 48000
2026-05-06 08:00 15.83 35400 48100 (2022) 1170 (2023) 25300 1230 4330 11500 26500 38600 45000 48000
2026-05-06 07:00 15.77 35200 48100 (2022) 1170 (2023) 25300 1230 4330 11500 26500 38600 45000 48000
2026-05-06 06:00 15.71 35000 48100 (2022) 1170 (2023) 25300 1230 4330 11500 26500 38600 45000 48000
2026-05-06 05:00 15.61 34700 48100 (2022) 1170 (2023) 25300 1230 4330 11500 26500 38600 45000 48000
2026-05-06 04:00 15.52 34400 48100 (2022) 1170 (2023) 25300 1230 4330 11500 26500 38600 45000 48000
2026-05-06 03:00 15.40 34100 48100 (2022) 1170 (2023) 25300 1230 4330 11500 26500 38600 45000 48000
2026-05-06 02:00 15.24 33600 48100 (2022) 1170 (2023) 25300 1230 4330 11500 26500 38600 45000 48000
2026-05-06 01:00 15.05 33000 48100 (2022) 1170 (2023) 25300 1230 4330 11500 26500 38600 45000 48000
2026-05-06 00:00 14.83 32300 48100 (2022) 1170 (2023) 25300 1230 4330 11500 26500 38600 45000 48000
2026-05-05 23:00 14.60 31600 48100 (2022) 1170 (2023) 25300 1230 4330 11500 26500 38600 45000 48000
2026-05-05 22:00 14.46 31200 50000 (2024) 1370 (2023) 26000 1400 2810 6020 28900 39900 45200 49700
2026-05-05 21:00 14.54 31400 50000 (2024) 1370 (2023) 26000 1400 2810 6020 28900 39900 45200 49700
2026-05-05 20:00 15.17 33400 50000 (2024) 1370 (2023) 26000 1400 2810 6020 28900 39900 45200 49700
2026-05-05 19:00 15.91 35700 50000 (2024) 1370 (2023) 26000 1400 2810 6020 28900 39900 45200 49700
2026-05-05 18:00 15.95 35800 50000 (2024) 1370 (2023) 26000 1400 2810 6020 28900 39900 45200 49700
2026-05-05 17:00 15.99 35900 50000 (2024) 1370 (2023) 26000 1400 2810 6020 28900 39900 45200 49700
2026-05-05 16:00 15.96 35800 50000 (2024) 1370 (2023) 26000 1400 2810 6020 28900 39900 45200 49700
2026-05-05 15:00 15.93 35700 50000 (2024) 1370 (2023) 26000 1400 2810 6020 28900 39900 45200 49700
2026-05-05 14:00 15.93 35700 50000 (2024) 1370 (2023) 26000 1400 2810 6020 28900 39900 45200 49700
2026-05-05 13:00 16.09 36200 50000 (2024) 1370 (2023) 26000 1400 2810 6020 28900 39900 45200 49700
2026-05-05 12:00 16.08 36200 50000 (2024) 1370 (2023) 26000 1400 2810 6020 28900 39900 45200 49700
2026-05-05 11:00 16.06 36100 50000 (2024) 1370 (2023) 26000 1400 2810 6020 28900 39900 45200 49700
2026-05-05 10:00 16.07 36200 50000 (2024) 1370 (2023) 26000 1400 2810 6020 28900 39900 45200 49700
2026-05-05 09:00 16.05 36100 50000 (2024) 1370 (2023) 26000 1400 2810 6020 28900 39900 45200 49700
2026-05-05 08:00 16.02 36000 50000 (2024) 1370 (2023) 26000 1400 2810 6020 28900 39900 45200 49700
2026-05-05 07:00 15.98 35900 50000 (2024) 1370 (2023) 26000 1400 2810 6020 28900 39900 45200 49700
2026-05-05 06:00 15.95 35800 50000 (2024) 1370 (2023) 26000 1400 2810 6020 28900 39900 45200 49700
2026-05-05 05:00 15.84 35400 50000 (2024) 1370 (2023) 26000 1400 2810 6020 28900 39900 45200 49700
2026-05-05 04:00 15.75 35200 50000 (2024) 1370 (2023) 26000 1400 2810 6020 28900 39900 45200 49700
2026-05-05 03:00 15.71 35000 50000 (2024) 1370 (2023) 26000 1400 2810 6020 28900 39900 45200 49700
2026-05-05 02:00 15.63 34800 50000 (2024) 1370 (2023) 26000 1400 2810 6020 28900 39900 45200 49700
2026-05-05 01:00 15.77 35200 50000 (2024) 1370 (2023) 26000 1400 2810 6020 28900 39900 45200 49700
2026-05-05 00:00 15.78 35300 50000 (2024) 1370 (2023) 26000 1400 2810 6020 28900 39900 45200 49700
2026-05-04 23:00 15.71 35000 50000 (2024) 1370 (2023) 26000 1400 2810 6020 28900 39900 45200 49700
2026-05-04 22:00 15.62 34800 55400 (2017) 1320 (2023) 26100 1330 3040 7580 26500 40900 46600 54700
2026-05-04 21:00 15.54 34500 55400 (2017) 1320 (2023) 26100 1330 3040 7580 26500 40900 46600 54700
2026-05-04 20:00 15.41 34100 55400 (2017) 1320 (2023) 26100 1330 3040 7580 26500 40900 46600 54700
2026-05-04 19:00 15.26 33600 55400 (2017) 1320 (2023) 26100 1330 3040 7580 26500 40900 46600 54700
2026-05-04 18:00 15.07 33000 55400 (2017) 1320 (2023) 26100 1330 3040 7580 26500 40900 46600 54700
2026-05-04 17:00 14.88 32500 55400 (2017) 1320 (2023) 26100 1330 3040 7580 26500 40900 46600 54700
2026-05-04 16:00 14.62 31700 55400 (2017) 1320 (2023) 26100 1330 3040 7580 26500 40900 46600 54700
2026-05-04 15:00 14.34 30800 55400 (2017) 1320 (2023) 26100 1330 3040 7580 26500 40900 46600 54700
2026-05-04 14:00 13.94 29600 55400 (2017) 1320 (2023) 26100 1330 3040 7580 26500 40900 46600 54700
2026-05-04 13:00 13.45 28200 55400 (2017) 1320 (2023) 26100 1330 3040 7580 26500 40900 46600 54700
2026-05-04 12:00 12.88 26500 55400 (2017) 1320 (2023) 26100 1330 3040 7580 26500 40900 46600 54700
2026-05-04 11:00 12.23 24600 55400 (2017) 1320 (2023) 26100 1330 3040 7580 26500 40900 46600 54700
2026-05-04 10:00 11.71 23200 55400 (2017) 1320 (2023) 26100 1330 3040 7580 26500 40900 46600 54700
2026-05-04 09:00 11.55 22700 55400 (2017) 1320 (2023) 26100 1330 3040 7580 26500 40900 46600 54700
2026-05-04 08:00 11.49 22600 55400 (2017) 1320 (2023) 26100 1330 3040 7580 26500 40900 46600 54700
2026-05-04 07:00 10.93 21000 55400 (2017) 1320 (2023) 26100 1330 3040 7580 26500 40900 46600 54700
2026-05-04 06:00 10.74 20500 55400 (2017) 1320 (2023) 26100 1330 3040 7580 26500 40900 46600 54700
2026-05-04 05:00 10.84 20800 55400 (2017) 1320 (2023) 26100 1330 3040 7580 26500 40900 46600 54700
2026-05-04 04:00 10.82 20700 55400 (2017) 1320 (2023) 26100 1330 3040 7580 26500 40900 46600 54700
2026-05-04 03:00 10.75 20600 55400 (2017) 1320 (2023) 26100 1330 3040 7580 26500 40900 46600 54700
2026-05-04 02:00 10.86 20800 55400 (2017) 1320 (2023) 26100 1330 3040 7580 26500 40900 46600 54700
2026-05-04 01:00 11.19 21700 55400 (2017) 1320 (2023) 26100 1330 3040 7580 26500 40900 46600 54700
2026-05-04 00:00 11.34 22200 55400 (2017) 1320 (2023) 26100 1330 3040 7580 26500 40900 46600 54700
2026-05-03 23:00 11.51 22600 55400 (2017) 1320 (2023) 26100 1330 3040 7580 26500 40900 46600 54700
2026-05-03 22:00 11.71 23200 56100 (2017) 1300 (2018) 26000 1310 3860 10600 27200 38100 41200 54700
2026-05-03 21:00 11.60 22900 56100 (2017) 1300 (2018) 26000 1310 3860 10600 27200 38100 41200 54700
2026-05-03 20:00 11.10 21500 56100 (2017) 1300 (2018) 26000 1310 3860 10600 27200 38100 41200 54700
2026-05-03 19:00 10.80 20700 56100 (2017) 1300 (2018) 26000 1310 3860 10600 27200 38100 41200 54700
2026-05-03 18:00 10.81 20700 56100 (2017) 1300 (2018) 26000 1310 3860 10600 27200 38100 41200 54700
2026-05-03 17:00 10.69 20400 56100 (2017) 1300 (2018) 26000 1310 3860 10600 27200 38100 41200 54700
2026-05-03 16:00 10.58 20100 56100 (2017) 1300 (2018) 26000 1310 3860 10600 27200 38100 41200 54700
2026-05-03 15:00 10.44 19700 56100 (2017) 1300 (2018) 26000 1310 3860 10600 27200 38100 41200 54700
2026-05-03 14:00 10.30 19400 56100 (2017) 1300 (2018) 26000 1310 3860 10600 27200 38100 41200 54700
2026-05-03 13:00 10.14 18900 56100 (2017) 1300 (2018) 26000 1310 3860 10600 27200 38100 41200 54700
2026-05-03 12:00 10.26 19300 56100 (2017) 1300 (2018) 26000 1310 3860 10600 27200 38100 41200 54700
2026-05-03 11:00 10.25 19200 56100 (2017) 1300 (2018) 26000 1310 3860 10600 27200 38100 41200 54700
2026-05-03 10:00 10.30 19400 56100 (2017) 1300 (2018) 26000 1310 3860 10600 27200 38100 41200 54700
2026-05-03 09:00 10.49 19900 56100 (2017) 1300 (2018) 26000 1310 3860 10600 27200 38100 41200 54700
2026-05-03 08:00 10.77 20600 56100 (2017) 1300 (2018) 26000 1310 3860 10600 27200 38100 41200 54700
2026-05-03 07:00 11.20 21800 56100 (2017) 1300 (2018) 26000 1310 3860 10600 27200 38100 41200 54700
2026-05-03 06:00 11.72 23200 56100 (2017) 1300 (2018) 26000 1310 3860 10600 27200 38100 41200 54700
2026-05-03 05:00 12.13 24300 56100 (2017) 1300 (2018) 26000 1310 3860 10600 27200 38100 41200 54700
2026-05-03 04:00 12.44 25200 56100 (2017) 1300 (2018) 26000 1310 3860 10600 27200 38100 41200 54700
2026-05-03 03:00 12.39 25100 56100 (2017) 1300 (2018) 26000 1310 3860 10600 27200 38100 41200 54700
2026-05-03 02:00 12.40 25100 56100 (2017) 1300 (2018) 26000 1310 3860 10600 27200 38100 41200 54700
2026-05-03 01:00 12.26 24700 56100 (2017) 1300 (2018) 26000 1310 3860 10600 27200 38100 41200 54700
2026-05-03 00:00 12.09 24200 56100 (2017) 1300 (2018) 26000 1310 3860 10600 27200 38100 41200 54700
2026-05-02 23:00 12.45 25300 56100 (2017) 1300 (2018) 26000 1310 3860 10600 27200 38100 41200 54700

A total of 179 rows are displayed for years 2016 through 2025.